Time,TemperatureF,DewpointF,PressureIn,WindDirection,WindDirectionDegrees,WindSpeedMPH,WindSpeedGustMPH,Humidity,HourlyPrecipIn,Conditions,Clouds,dailyrainin,SolarRadiationWatts/m^2,SoftwareType,DateUTC
2016-02-14 00:01:00,59.5,53.8,30.57,NNW,331,0.0,0.0,81,0.00,,,0.00,0.00,Weather logger V3.0.,2016-02-14 05:01:00,
2016-02-14 00:06:00,59.4,53.6,30.56,North,6,0.0,0.0,81,0.00,,,0.00,0.00,Weather logger V3.0.,2016-02-14 05:06:00,
2016-02-14 00:11:00,59.4,53.6,30.56,SW,215,0.0,0.0,81,0.00,,,0.00,0.00,Weather logger V3.0.,2016-02-14 05:11:00,
2016-02-14 00:16:00,59.2,53.4,30.56,WNW,287,0.0,0.0,81,0.00,,,0.00,0.00,Weather logger V3.0.,2016-02-14 05:16:00,
2016-02-14 00:21:00,59.2,53.8,30.56,WNW,299,0.0,0.0,82,0.00,,,0.00,0.00,Weather logger V3.0.,2016-02-14 05:21:00,
2016-02-14 00:26:00,59.0,53.6,30.56,WNW,285,0.0,0.0,82,0.00,,,0.00,0.00,Weather logger V3.0.,2016-02-14 05:26:00,
2016-02-14 00:31:00,58.8,53.4,30.56,NNW,340,0.0,0.0,82,0.00,,,0.00,0.00,Weather logger V3.0.,2016-02-14 05:31:00,
2016-02-14 00:36:00,58.6,53.2,30.55,WSW,246,0.0,0.0,82,0.00,,,0.00,0.00,Weather logger V3.0.,2016-02-14 05:36:00,
2016-02-14 00:41:00,58.5,53.1,30.56,WSW,253,0.0,0.0,82,0.00,,,0.00,0.00,Weather logger V3.0.,2016-02-14 05:41:00,
2016-02-14 00:46:00,58.3,52.5,30.56,West,266,0.0,0.0,81,0.00,,,0.00,0.00,Weather logger V3.0.,2016-02-14 05:46:00,
2016-02-14 00:51:00,58.1,52.3,30.55,WSW,240,0.0,0.0,81,0.00,,,0.00,0.00,Weather logger V3.0.,2016-02-14 05:51:00,
2016-02-14 00:56:00,57.9,52.2,30.55,WSW,239,0.0,0.0,81,0.00,,,0.00,0.00,Weather logger V3.0.,2016-02-14 05:56:00,
2016-02-14 01:01:00,57.9,52.2,30.56,NNW,327,0.0,0.0,81,0.00,,,0.00,0.00,Weather logger V3.0.,2016-02-14 06:01:00,
2016-02-14 01:07:00,57.7,52.0,30.55,WNW,285,0.0,0.0,81,0.00,,,0.00,0.00,Weather logger V3.0.,2016-02-14 06:07:00,
2016-02-14 01:12:00,57.7,52.0,30.55,NW,315,0.0,0.0,81,0.00,,,0.00,0.00,Weather logger V3.0.,2016-02-14 06:12:00,
2016-02-14 01:17:00,57.7,52.0,30.55,SSW,213,0.0,0.0,81,0.00,,,0.00,0.00,Weather logger V3.0.,2016-02-14 06:17:00,
2016-02-14 01:22:00,57.7,52.0,30.55,South,182,0.0,0.0,81,0.00,,,0.00,0.00,Weather logger V3.0.,2016-02-14 06:22:00,
2016-02-14 01:27:00,57.7,51.6,30.54,NW,319,0.0,0.0,80,0.00,,,0.00,0.00,Weather logger V3.0.,2016-02-14 06:27:00,
2016-02-14 01:32:00,57.7,51.6,30.54,NW,313,0.0,0.0,80,0.00,,,0.00,0.00,Weather logger V3.0.,2016-02-14 06:32:00,
2016-02-14 01:37:00,57.6,51.4,30.54,NNW,340,0.0,0.0,80,0.00,,,0.00,0.00,Weather logger V3.0.,2016-02-14 06:37:00,
2016-02-14 01:42:00,57.2,51.1,30.54,NW,323,0.0,0.0,80,0.00,,,0.00,0.00,Weather logger V3.0.,2016-02-14 06:42:00,
2016-02-14 01:47:00,57.0,51.3,30.54,NW,324,0.0,0.0,81,0.00,,,0.00,0.00,Weather logger V3.0.,2016-02-14 06:47:00,
2016-02-14 01:52:00,56.7,50.9,30.54,NW,322,0.0,0.0,81,0.00,,,0.00,0.00,Weather logger V3.0.,2016-02-14 06:52:00,
2016-02-14 01:57:00,56.5,51.1,30.54,NW,316,0.0,0.0,82,0.00,,,0.00,0.00,Weather logger V3.0.,2016-02-14 06:57:00,
2016-02-14 02:02:00,56.1,50.7,30.54,NNW,332,0.0,0.0,82,0.00,,,0.00,0.00,Weather logger V3.0.,2016-02-14 07:02:00,
2016-02-14 02:07:00,56.1,50.7,30.53,West,274,0.0,0.0,82,0.00,,,0.00,0.00,Weather logger V3.0.,2016-02-14 07:07:00,
2016-02-14 02:12:00,56.1,50.7,30.53,NNW,346,0.0,0.0,82,0.00,,,0.00,0.00,Weather logger V3.0.,2016-02-14 07:12:00,
2016-02-14 02:17:00,56.1,50.7,30.53,North,0,0.0,0.0,82,0.00,,,0.00,0.00,Weather logger V3.0.,2016-02-14 07:17:00,
2016-02-14 02:23:00,56.1,50.7,30.52,North,358,0.0,0.0,82,0.00,,,0.00,0.00,Weather logger V3.0.,2016-02-14 07:23:00,
2016-02-14 02:28:00,56.1,50.7,30.52,NNW,343,0.0,0.0,82,0.00,,,0.00,0.00,Weather logger V3.0.,2016-02-14 07:28:00,
2016-02-14 02:33:00,56.1,50.7,30.52,NW,313,0.0,0.0,82,0.00,,,0.00,0.00,Weather logger V3.0.,2016-02-14 07:33:00,
2016-02-14 02:38:00,56.1,51.1,30.52,NW,305,0.0,0.0,83,0.00,,,0.00,0.00,Weather logger V3.0.,2016-02-14 07:38:00,
2016-02-14 02:43:00,56.1,51.1,30.52,West,271,0.0,0.0,83,0.00,,,0.00,0.00,Weather logger V3.0.,2016-02-14 07:43:00,
2016-02-14 02:48:00,55.9,51.3,30.52,NW,314,0.0,0.0,84,0.00,,,0.00,0.00,Weather logger V3.0.,2016-02-14 07:48:00,
2016-02-14 02:58:00,55.9,51.4,30.52,NE,35,0.0,0.0,85,0.00,,,0.00,0.00,Weather logger V3.0.,2016-02-14 07:58:00,
2016-02-14 03:03:00,55.9,53.6,30.52,WNW,302,0.0,0.0,92,0.00,,,0.00,0.00,Weather logger V3.0.,2016-02-14 08:03:00,
2016-02-14 03:13:00,56.8,55.4,30.51,WNW,297,0.0,0.0,95,0.00,,,0.00,0.00,Weather logger V3.0.,2016-02-14 08:13:00,
2016-02-14 03:23:00,57.0,56.1,30.51,WNW,294,0.0,0.0,97,0.00,,,0.00,0.00,Weather logger V3.0.,2016-02-14 08:23:00,
2016-02-14 03:28:00,57.0,56.1,30.51,West,275,0.0,0.0,97,0.00,,,0.00,0.00,Weather logger V3.0.,2016-02-14 08:28:00,
2016-02-14 03:33:00,57.0,56.5,30.52,West,276,0.0,0.0,98,0.00,,,0.00,0.00,Weather logger V3.0.,2016-02-14 08:33:00,
2016-02-14 03:39:00,56.7,56.1,30.51,NW,313,0.0,0.0,98,0.00,,,0.00,0.00,Weather logger V3.0.,2016-02-14 08:39:00,
2016-02-14 03:44:00,56.1,55.6,30.51,NW,314,0.0,0.0,98,0.00,,,0.00,0.00,Weather logger V3.0.,2016-02-14 08:44:00,
2016-02-14 03:49:00,56.1,55.6,30.52,WNW,299,0.0,0.0,98,0.00,,,0.00,0.00,Weather logger V3.0.,2016-02-14 08:49:00,
2016-02-14 03:59:00,56.1,55.9,30.52,WSW,257,0.0,0.0,99,0.00,,,0.00,0.00,Weather logger V3.0.,2016-02-14 08:59:00,
2016-02-14 04:04:00,55.9,55.8,30.51,WNW,299,0.0,0.0,99,0.00,,,0.00,0.00,Weather logger V3.0.,2016-02-14 09:04:00,
2016-02-14 04:09:00,55.9,55.8,30.52,West,280,0.0,0.0,99,0.00,,,0.00,0.00,Weather logger V3.0.,2016-02-14 09:09:00,
2016-02-14 04:14:00,55.9,55.8,30.52,NNW,341,0.0,0.0,99,0.00,,,0.00,0.00,Weather logger V3.0.,2016-02-14 09:14:00,
2016-02-14 04:19:00,55.9,55.8,30.52,NW,322,0.0,0.0,99,0.00,,,0.00,0.00,Weather logger V3.0.,2016-02-14 09:19:00,
2016-02-14 04:24:00,55.9,55.8,30.51,NW,319,0.0,0.0,99,0.00,,,0.00,0.00,Weather logger V3.0.,2016-02-14 09:24:00,
2016-02-14 04:29:00,55.8,55.6,30.52,NNE,30,0.0,0.0,99,0.00,,,0.00,0.00,Weather logger V3.0.,2016-02-14 09:29:00,
2016-02-14 04:34:00,55.8,55.6,30.52,West,265,0.0,0.0,99,0.00,,,0.00,0.00,Weather logger V3.0.,2016-02-14 09:34:00,
2016-02-14 04:39:00,55.8,55.6,30.51,NNE,33,0.0,0.0,99,0.00,,,0.00,0.00,Weather logger V3.0.,2016-02-14 09:39:00,
2016-02-14 04:44:00,55.8,55.6,30.51,North,1,0.0,0.0,99,0.00,,,0.00,0.00,Weather logger V3.0.,2016-02-14 09:44:00,
2016-02-14 04:49:00,55.6,55.4,30.52,NW,315,0.0,0.0,99,0.00,,,0.00,0.00,Weather logger V3.0.,2016-02-14 09:49:00,
2016-02-14 04:55:00,55.6,55.4,30.51,NW,319,0.0,0.0,99,0.00,,,0.00,0.00,Weather logger V3.0.,2016-02-14 09:55:00,
2016-02-14 05:00:00,55.4,55.2,30.52,WNW,302,0.0,0.0,99,0.00,,,0.00,0.00,Weather logger V3.0.,2016-02-14 10:00:00,
2016-02-14 05:05:00,55.4,54.9,30.53,WNW,302,0.0,0.0,98,0.00,,,0.00,0.00,Weather logger V3.0.,2016-02-14 10:05:00,
2016-02-14 05:10:00,55.4,54.9,30.53,WNW,301,0.0,0.0,98,0.00,,,0.00,0.00,Weather logger V3.0.,2016-02-14 10:10:00,
2016-02-14 05:15:00,55.4,54.9,30.53,West,259,0.0,0.0,98,0.00,,,0.00,0.00,Weather logger V3.0.,2016-02-14 10:15:00,
2016-02-14 05:20:00,55.4,54.9,30.54,NW,308,0.0,0.0,98,0.00,,,0.00,0.00,Weather logger V3.0.,2016-02-14 10:20:00,
2016-02-14 05:25:00,55.2,54.5,30.54,NW,323,0.0,0.0,97,0.00,,,0.00,0.00,Weather logger V3.0.,2016-02-14 10:25:00,
2016-02-14 05:35:00,55.2,54.5,30.53,WNW,297,0.0,0.0,97,0.00,,,0.00,0.00,Weather logger V3.0.,2016-02-14 10:35:00,
2016-02-14 05:40:00,55.0,54.3,30.53,NW,325,0.0,0.0,97,0.00,,,0.00,0.00,Weather logger V3.0.,2016-02-14 10:40:00,
2016-02-14 05:45:00,55.0,54.3,30.53,NW,319,0.0,0.0,97,0.00,,,0.00,0.00,Weather logger V3.0.,2016-02-14 10:45:00,
2016-02-14 05:50:00,54.9,54.1,30.53,NW,326,0.0,0.0,97,0.00,,,0.00,0.00,Weather logger V3.0.,2016-02-14 10:50:00,
2016-02-14 05:55:00,54.9,53.8,30.53,NW,326,0.0,0.0,96,0.00,,,0.00,0.00,Weather logger V3.0.,2016-02-14 10:55:00,
2016-02-14 06:00:00,54.9,53.8,30.52,NE,37,0.0,0.0,96,0.00,,,0.00,0.00,Weather logger V3.0.,2016-02-14 11:00:00,
2016-02-14 06:06:00,54.9,53.8,30.53,WSW,255,0.0,0.0,96,0.00,,,0.00,0.00,Weather logger V3.0.,2016-02-14 11:06:00,
2016-02-14 06:11:00,55.0,54.0,30.53,NW,305,0.0,0.0,96,0.00,,,0.00,0.00,Weather logger V3.0.,2016-02-14 11:11:00,
2016-02-14 06:16:00,55.0,54.0,30.52,NW,305,0.0,0.0,96,0.00,,,0.00,0.00,Weather logger V3.0.,2016-02-14 11:16:00,
2016-02-14 06:21:00,55.2,54.1,30.53,WNW,303,0.0,0.0,96,0.00,,,0.00,0.00,Weather logger V3.0.,2016-02-14 11:21:00,
2016-02-14 06:26:00,55.2,54.1,30.53,NW,304,0.0,0.0,96,0.00,,,0.00,0.00,Weather logger V3.0.,2016-02-14 11:26:00,
2016-02-14 06:31:00,55.2,53.8,30.54,NW,304,0.0,0.0,95,0.00,,,0.00,0.00,Weather logger V3.0.,2016-02-14 11:31:00,
2016-02-14 06:36:00,55.2,53.8,30.54,NW,304,0.0,0.0,95,0.00,,,0.00,0.00,Weather logger V3.0.,2016-02-14 11:36:00,
2016-02-14 06:41:00,55.2,53.8,30.53,NW,304,0.0,0.0,95,0.00,,,0.00,0.00,Weather logger V3.0.,2016-02-14 11:41:00,
2016-02-14 06:46:00,55.0,53.6,30.54,NW,304,0.0,0.0,95,0.00,,,0.00,0.00,Weather logger V3.0.,2016-02-14 11:46:00,
2016-02-14 06:51:00,55.0,54.0,30.55,WNW,303,0.0,0.0,96,0.00,,,0.00,0.00,Weather logger V3.0.,2016-02-14 11:51:00,
2016-02-14 06:56:00,55.0,54.0,30.54,North,5,0.0,0.0,96,0.00,,,0.00,0.74,Weather logger V3.0.,2016-02-14 11:56:00,
2016-02-14 07:01:00,55.0,53.6,30.54,ENE,66,0.0,0.0,95,0.00,,,0.00,2.81,Weather logger V3.0.,2016-02-14 12:01:00,
2016-02-14 07:06:00,55.0,53.6,30.54,ENE,67,0.0,0.0,95,0.00,,,0.00,4.88,Weather logger V3.0.,2016-02-14 12:06:00,
2016-02-14 07:11:00,55.0,54.0,30.55,ENE,67,0.0,0.0,96,0.00,,,0.00,8.04,Weather logger V3.0.,2016-02-14 12:11:00,
2016-02-14 07:22:00,55.0,54.0,30.55,NW,309,0.0,0.0,96,0.00,,,0.00,26.24,Weather logger V3.0.,2016-02-14 12:22:00,
2016-02-14 07:27:00,55.2,54.5,30.55,WNW,287,0.0,0.0,97,0.00,,,0.00,34.57,Weather logger V3.0.,2016-02-14 12:27:00,
2016-02-14 07:32:00,55.6,54.5,30.56,WNW,285,0.0,0.0,96,0.00,,,0.00,43.29,Weather logger V3.0.,2016-02-14 12:32:00,
2016-02-14 07:37:00,56.3,54.9,30.56,North,5,0.0,0.0,95,0.00,,,0.00,39.07,Weather logger V3.0.,2016-02-14 12:37:00,
2016-02-14 07:42:00,57.2,55.6,30.55,NNE,21,0.0,0.0,94,0.00,,,0.00,51.93,Weather logger V3.0.,2016-02-14 12:42:00,
2016-02-14 07:47:00,58.3,55.8,30.56,NNE,29,0.0,0.0,91,0.00,,,0.00,55.21,Weather logger V3.0.,2016-02-14 12:47:00,
2016-02-14 07:52:00,59.5,55.8,30.57,West,279,0.0,0.0,87,0.00,,,0.00,57.06,Weather logger V3.0.,2016-02-14 12:52:00,
2016-02-14 07:57:00,60.4,55.2,30.56,West,275,0.0,0.0,83,0.00,,,0.00,57.14,Weather logger V3.0.,2016-02-14 12:57:00,
2016-02-14 08:02:00,61.3,55.6,30.56,West,281,0.0,0.0,81,0.00,,,0.00,56.55,Weather logger V3.0.,2016-02-14 13:02:00,
2016-02-14 08:07:00,62.1,55.9,30.57,North,353,0.0,0.0,80,0.00,,,0.00,56.08,Weather logger V3.0.,2016-02-14 13:07:00,
2016-02-14 08:12:00,62.6,56.1,30.57,West,261,0.0,0.0,79,0.00,,,0.00,56.87,Weather logger V3.0.,2016-02-14 13:12:00,
2016-02-14 08:17:00,62.8,56.5,30.57,NNW,348,0.0,0.0,80,0.00,,,0.00,50.51,Weather logger V3.0.,2016-02-14 13:17:00,
2016-02-14 08:22:00,62.8,56.5,30.56,NNE,30,0.0,0.0,80,0.00,,,0.00,49.80,Weather logger V3.0.,2016-02-14 13:22:00,
2016-02-14 08:27:00,63.0,57.0,30.57,West,262,0.0,0.0,81,0.00,,,0.00,34.41,Weather logger V3.0.,2016-02-14 13:27:00,
2016-02-14 08:32:00,63.0,57.0,30.57,WNW,303,0.0,0.0,81,0.00,,,0.00,54.89,Weather logger V3.0.,2016-02-14 13:32:00,
2016-02-14 08:38:00,62.8,57.2,30.57,NW,309,0.0,0.0,82,0.00,,,0.00,44.44,Weather logger V3.0.,2016-02-14 13:38:00,
2016-02-14 08:43:00,62.6,56.7,30.57,NW,306,0.0,0.0,81,0.00,,,0.00,41.55,Weather logger V3.0.,2016-02-14 13:43:00,
2016-02-14 08:48:00,62.8,56.5,30.57,NNE,27,0.0,0.0,80,0.00,,,0.00,36.19,Weather logger V3.0.,2016-02-14 13:48:00,
2016-02-14 08:53:00,62.8,55.9,30.57,NE,38,0.0,0.0,78,0.00,,,0.00,56.91,Weather logger V3.0.,2016-02-14 13:53:00,
2016-02-14 08:58:00,63.0,55.4,30.57,NE,38,1.8,2.5,76,0.00,,,0.00,59.35,Weather logger V3.0.,2016-02-14 13:58:00,
2016-02-14 09:03:00,63.5,54.3,30.58,North,357,0.0,0.0,72,0.00,,,0.00,72.10,Weather logger V3.0.,2016-02-14 14:03:00,
2016-02-14 09:08:00,64.0,52.9,30.58,NE,41,0.0,0.0,67,0.00,,,0.00,68.19,Weather logger V3.0.,2016-02-14 14:08:00,
2016-02-14 09:13:00,64.8,52.7,30.57,NE,48,0.0,0.0,65,0.00,,,0.00,70.32,Weather logger V3.0.,2016-02-14 14:13:00,
2016-02-14 09:18:00,65.3,53.2,30.58,NNE,19,2.7,4.9,65,0.00,,,0.00,61.76,Weather logger V3.0.,2016-02-14 14:18:00,
2016-02-14 09:23:00,66.2,52.0,30.57,NNE,26,4.9,9.8,60,0.00,,,0.00,59.12,Weather logger V3.0.,2016-02-14 14:23:00,
2016-02-14 09:28:00,66.9,51.3,30.58,NW,307,4.0,7.4,57,0.00,,,0.00,73.68,Weather logger V3.0.,2016-02-14 14:28:00,
2016-02-14 09:33:00,67.3,51.6,30.58,ENE,70,2.9,4.9,57,0.00,,,0.00,61.68,Weather logger V3.0.,2016-02-14 14:33:00,
2016-02-14 09:38:00,67.6,51.4,30.58,ENE,58,4.9,7.4,56,0.00,,,0.00,63.46,Weather logger V3.0.,2016-02-14 14:38:00,
2016-02-14 09:43:00,67.8,50.5,30.58,ENE,62,4.2,7.4,54,0.00,,,0.00,61.01,Weather logger V3.0.,2016-02-14 14:43:00,
2016-02-14 09:48:00,68.0,51.3,30.58,NNW,337,7.2,9.8,55,0.00,,,0.00,39.42,Weather logger V3.0.,2016-02-14 14:48:00,
2016-02-14 09:59:00,68.0,50.7,30.58,ENE,66,5.1,7.4,54,0.00,,,0.00,169.60,Weather logger V3.0.,2016-02-14 14:59:00,
2016-02-14 10:04:00,68.2,50.4,30.58,North,355,3.4,4.9,53,0.00,,,0.00,104.69,Weather logger V3.0.,2016-02-14 15:04:00,
2016-02-14 10:09:00,68.2,50.0,30.59,North,8,5.1,7.4,52,0.00,,,0.00,89.94,Weather logger V3.0.,2016-02-14 15:09:00,
2016-02-14 10:14:00,68.4,50.2,30.59,NW,320,7.6,12.3,52,0.00,,,0.00,83.63,Weather logger V3.0.,2016-02-14 15:14:00,
2016-02-14 10:19:00,68.4,50.2,30.59,East,90,4.9,7.4,52,0.00,,,0.00,76.91,Weather logger V3.0.,2016-02-14 15:19:00,
2016-02-14 10:24:00,68.4,50.5,30.59,NNE,33,2.7,4.9,53,0.00,,,0.00,56.59,Weather logger V3.0.,2016-02-14 15:24:00,
2016-02-14 10:29:00,68.4,50.2,30.60,NE,38,5.1,7.4,52,0.00,,,0.00,96.16,Weather logger V3.0.,2016-02-14 15:29:00,
2016-02-14 10:34:00,68.5,50.2,30.60,NE,45,6.7,9.8,52,0.00,,,0.00,117.19,Weather logger V3.0.,2016-02-14 15:34:00,
2016-02-14 10:39:00,68.5,51.3,30.60,NNE,25,5.1,7.4,54,0.00,,,0.00,124.55,Weather logger V3.0.,2016-02-14 15:39:00,
2016-02-14 10:44:00,68.5,51.3,30.60,NE,43,4.2,7.4,54,0.00,,,0.00,100.58,Weather logger V3.0.,2016-02-14 15:44:00,
2016-02-14 10:49:00,68.5,51.8,30.60,North,0,9.6,12.3,55,0.00,,,0.00,163.16,Weather logger V3.0.,2016-02-14 15:49:00,
2016-02-14 10:54:00,68.7,51.4,30.61,NE,46,8.3,9.8,54,0.00,,,0.00,159.84,Weather logger V3.0.,2016-02-14 15:54:00,
2016-02-14 10:59:00,68.7,52.0,30.61,NE,44,8.1,9.8,55,0.00,,,0.00,169.38,Weather logger V3.0.,2016-02-14 15:59:00,
2016-02-14 11:04:00,68.5,51.3,30.60,ENE,77,4.5,4.9,54,0.00,,,0.00,129.19,Weather logger V3.0.,2016-02-14 16:04:00,
2016-02-14 11:10:00,68.5,51.8,30.61,East,85,2.0,4.9,55,0.00,,,0.00,152.55,Weather logger V3.0.,2016-02-14 16:10:00,
2016-02-14 11:15:00,68.5,50.7,30.60,NNE,27,8.1,9.8,53,0.00,,,0.00,186.84,Weather logger V3.0.,2016-02-14 16:15:00,
2016-02-14 11:20:00,68.5,51.3,30.60,NNE,33,8.3,9.8,54,0.00,,,0.00,160.09,Weather logger V3.0.,2016-02-14 16:20:00,
2016-02-14 11:25:00,68.5,51.8,30.59,North,6,8.3,9.8,55,0.00,,,0.00,165.34,Weather logger V3.0.,2016-02-14 16:25:00,
2016-02-14 11:30:00,68.5,51.8,30.60,NE,48,5.8,9.8,55,0.00,,,0.00,151.79,Weather logger V3.0.,2016-02-14 16:30:00,
2016-02-14 11:35:00,68.5,52.3,30.59,NE,52,4.9,7.4,56,0.00,,,0.00,161.26,Weather logger V3.0.,2016-02-14 16:35:00,
2016-02-14 11:40:00,68.5,51.3,30.59,NE,34,3.4,4.9,54,0.00,,,0.00,178.56,Weather logger V3.0.,2016-02-14 16:40:00,
2016-02-14 11:45:00,68.5,51.8,30.59,NE,45,2.7,4.9,55,0.00,,,0.00,203.28,Weather logger V3.0.,2016-02-14 16:45:00,
2016-02-14 11:50:00,68.5,51.3,30.59,NE,48,7.4,9.8,54,0.00,,,0.00,202.65,Weather logger V3.0.,2016-02-14 16:50:00,
2016-02-14 11:55:00,68.5,51.3,30.59,North,357,7.2,12.3,54,0.00,,,0.00,179.45,Weather logger V3.0.,2016-02-14 16:55:00,
2016-02-14 12:00:00,68.5,51.8,30.58,NE,47,2.9,4.9,55,0.00,,,0.00,146.90,Weather logger V3.0.,2016-02-14 17:00:00,
2016-02-14 12:05:00,68.5,51.3,30.58,NE,42,4.2,7.4,54,0.00,,,0.00,173.16,Weather logger V3.0.,2016-02-14 17:05:00,
2016-02-14 12:10:00,68.5,50.7,30.58,ENE,72,5.1,7.4,53,0.00,,,0.00,192.36,Weather logger V3.0.,2016-02-14 17:10:00,
2016-02-14 12:15:00,68.5,51.8,30.59,NNW,339,6.5,9.8,55,0.00,,,0.00,228.51,Weather logger V3.0.,2016-02-14 17:15:00,
2016-02-14 12:20:00,68.5,51.3,30.58,NW,318,6.0,7.4,54,0.00,,,0.00,153.02,Weather logger V3.0.,2016-02-14 17:20:00,
2016-02-14 12:26:00,68.5,50.7,30.58,NNE,30,6.5,9.8,53,0.00,,,0.00,404.39,Weather logger V3.0.,2016-02-14 17:26:00,
2016-02-14 12:31:00,68.5,50.2,30.58,North,359,5.8,7.4,52,0.00,,,0.00,402.78,Weather logger V3.0.,2016-02-14 17:31:00,
2016-02-14 12:36:00,68.7,50.9,30.58,NNW,337,10.3,15.0,53,0.00,,,0.00,278.90,Weather logger V3.0.,2016-02-14 17:36:00,
2016-02-14 12:41:00,68.9,51.1,30.57,NNW,340,8.3,12.3,53,0.00,,,0.00,560.51,Weather logger V3.0.,2016-02-14 17:41:00,
2016-02-14 12:46:00,68.9,50.5,30.58,NNE,33,3.6,4.9,52,0.00,,,0.00,360.44,Weather logger V3.0.,2016-02-14 17:46:00,
2016-02-14 12:56:00,69.3,49.8,30.57,North,2,4.0,4.9,50,0.00,,,0.00,229.80,Weather logger V3.0.,2016-02-14 17:56:00,
2016-02-14 13:01:00,69.4,50.0,30.57,NE,45,2.9,4.9,50,0.00,,,0.00,695.22,Weather logger V3.0.,2016-02-14 18:01:00,
2016-02-14 13:06:00,69.6,49.6,30.56,NE,37,7.4,9.8,49,0.00,,,0.00,155.01,Weather logger V3.0.,2016-02-14 18:06:00,
2016-02-14 13:11:00,69.6,51.3,30.56,East,85,5.1,7.4,52,0.00,,,0.00,697.27,Weather logger V3.0.,2016-02-14 18:11:00,
2016-02-14 13:16:00,69.6,51.3,30.56,NNE,30,4.5,7.4,52,0.00,,,0.00,237.76,Weather logger V3.0.,2016-02-14 18:16:00,
2016-02-14 13:21:00,69.6,51.3,30.55,NE,39,7.4,9.8,52,0.00,,,0.00,768.52,Weather logger V3.0.,2016-02-14 18:21:00,
2016-02-14 13:26:00,69.6,50.7,30.55,NNW,336,4.9,7.4,51,0.00,,,0.00,217.46,Weather logger V3.0.,2016-02-14 18:26:00,
2016-02-14 13:31:00,69.6,51.3,30.55,NE,50,8.3,9.8,52,0.00,,,0.00,202.97,Weather logger V3.0.,2016-02-14 18:31:00,
2016-02-14 13:36:00,69.3,50.9,30.54,North,10,2.7,4.9,52,0.00,,,0.00,721.55,Weather logger V3.0.,2016-02-14 18:36:00,
2016-02-14 13:42:00,69.4,51.6,30.55,North,1,8.3,9.8,53,0.00,,,0.00,151.98,Weather logger V3.0.,2016-02-14 18:42:00,
2016-02-14 13:47:00,69.3,51.4,30.54,East,91,1.8,2.5,53,0.00,,,0.00,153.50,Weather logger V3.0.,2016-02-14 18:47:00,
2016-02-14 13:52:00,69.1,51.3,30.53,WNW,282,4.9,7.4,53,0.00,,,0.00,239.53,Weather logger V3.0.,2016-02-14 18:52:00,
2016-02-14 13:57:00,69.1,51.3,30.54,NE,45,4.0,7.4,53,0.00,,,0.00,669.93,Weather logger V3.0.,2016-02-14 18:57:00,
2016-02-14 14:02:00,68.9,50.5,30.54,ENE,61,5.1,7.4,52,0.00,,,0.00,175.88,Weather logger V3.0.,2016-02-14 19:02:00,
2016-02-14 14:07:00,68.9,50.5,30.54,NE,43,3.4,4.9,52,0.00,,,0.00,185.54,Weather logger V3.0.,2016-02-14 19:07:00,
2016-02-14 14:13:00,68.9,49.5,-100.00,NE,45,8.1,9.8,50,0.00,,,0.00,688.93,Weather logger V3.0.,2016-02-14 19:13:00,
2016-02-14 14:18:00,69.1,50.2,30.54,East,86,1.3,2.5,51,0.00,,,0.00,187.18,Weather logger V3.0.,2016-02-14 19:18:00,
2016-02-14 14:23:00,69.3,51.4,30.53,East,95,6.5,9.8,53,0.00,,,0.00,174.40,Weather logger V3.0.,2016-02-14 19:23:00,
2016-02-14 14:28:00,69.3,51.4,30.53,NE,37,3.6,4.9,53,0.00,,,0.00,681.58,Weather logger V3.0.,2016-02-14 19:28:00,
2016-02-14 14:38:00,69.4,51.1,30.53,East,79,5.8,7.4,52,0.00,,,0.00,221.25,Weather logger V3.0.,2016-02-14 19:38:00,
2016-02-14 14:43:00,69.4,52.2,30.53,SSW,212,3.6,7.4,54,0.00,,,0.00,166.66,Weather logger V3.0.,2016-02-14 19:43:00,
2016-02-14 14:48:00,69.4,51.6,30.52,ENE,76,1.1,2.5,53,0.00,,,0.00,99.48,Weather logger V3.0.,2016-02-14 19:48:00,
2016-02-14 14:53:00,69.3,52.5,30.53,NNE,31,5.6,7.4,55,0.00,,,0.00,182.67,Weather logger V3.0.,2016-02-14 19:53:00,
2016-02-14 14:58:00,69.3,50.9,30.53,NW,326,7.2,9.8,52,0.00,,,0.00,542.10,Weather logger V3.0.,2016-02-14 19:58:00,
2016-02-14 15:03:00,69.3,51.4,30.53,North,349,3.6,4.9,53,0.00,,,0.00,646.00,Weather logger V3.0.,2016-02-14 20:03:00,
2016-02-14 15:14:00,69.8,50.9,30.52,ENE,76,8.9,12.3,51,0.00,,,0.00,210.67,Weather logger V3.0.,2016-02-14 20:14:00,
2016-02-14 15:19:00,69.8,51.4,30.52,NNE,33,7.4,9.8,52,0.00,,,0.00,370.99,Weather logger V3.0.,2016-02-14 20:19:00,
2016-02-14 15:24:00,69.8,51.4,30.52,ENE,74,4.9,4.9,52,0.00,,,0.00,99.07,Weather logger V3.0.,2016-02-14 20:24:00,
2016-02-14 15:29:00,69.8,52.5,30.52,NE,39,1.8,2.5,54,0.00,,,0.00,337.43,Weather logger V3.0.,2016-02-14 20:29:00,
2016-02-14 15:34:00,70.0,52.7,30.52,NE,35,8.1,9.8,54,0.00,,,0.00,172.57,Weather logger V3.0.,2016-02-14 20:34:00,
2016-02-14 15:39:00,69.8,52.9,30.52,NNE,33,7.4,9.8,55,0.00,,,0.00,109.01,Weather logger V3.0.,2016-02-14 20:39:00,
2016-02-14 15:44:00,69.4,52.2,30.52,NNE,29,6.5,7.4,54,0.00,,,0.00,136.29,Weather logger V3.0.,2016-02-14 20:44:00,
2016-02-14 15:49:00,69.3,52.5,30.53,East,81,4.0,7.4,55,0.00,,,0.00,167.64,Weather logger V3.0.,2016-02-14 20:49:00,
2016-02-14 15:54:00,69.1,51.8,30.52,East,91,3.4,4.9,54,0.00,,,0.00,98.25,Weather logger V3.0.,2016-02-14 20:54:00,
2016-02-14 15:59:00,69.1,52.3,30.52,NE,42,4.9,7.4,55,0.00,,,0.00,108.48,Weather logger V3.0.,2016-02-14 20:59:00,
2016-02-14 16:04:00,68.9,53.6,30.53,ENE,68,6.5,9.8,58,0.00,,,0.00,385.41,Weather logger V3.0.,2016-02-14 21:04:00,
2016-02-14 16:14:00,69.1,53.2,30.52,NE,34,6.0,7.4,57,0.00,,,0.00,89.66,Weather logger V3.0.,2016-02-14 21:14:00,
2016-02-14 16:19:00,69.1,54.1,30.53,NNE,23,4.2,7.4,59,0.00,,,0.00,90.70,Weather logger V3.0.,2016-02-14 21:19:00,
2016-02-14 16:24:00,68.9,54.0,30.52,NNW,329,4.9,9.8,59,0.00,,,0.00,91.46,Weather logger V3.0.,2016-02-14 21:24:00,
2016-02-14 16:30:00,68.9,54.0,30.53,ESE,123,6.7,9.8,59,0.00,,,0.00,97.08,Weather logger V3.0.,2016-02-14 21:30:00,
2016-02-14 16:35:00,69.1,54.7,30.52,North,349,5.1,7.4,60,0.00,,,0.00,96.20,Weather logger V3.0.,2016-02-14 21:35:00,
2016-02-14 16:40:00,68.9,54.5,30.52,NNE,24,4.9,7.4,60,0.00,,,0.00,105.16,Weather logger V3.0.,2016-02-14 21:40:00,
2016-02-14 16:45:00,68.9,54.5,30.52,ENE,60,7.4,9.8,60,0.00,,,0.00,90.17,Weather logger V3.0.,2016-02-14 21:45:00,
2016-02-14 16:50:00,68.9,54.9,30.53,ENE,57,4.2,4.9,61,0.00,,,0.00,87.48,Weather logger V3.0.,2016-02-14 21:50:00,
2016-02-14 16:55:00,68.9,54.9,30.52,ENE,74,5.8,7.4,61,0.00,,,0.00,84.61,Weather logger V3.0.,2016-02-14 21:55:00,
2016-02-14 17:00:00,68.9,54.5,30.53,NNE,23,4.5,7.4,60,0.00,,,0.00,77.39,Weather logger V3.0.,2016-02-14 22:00:00,
2016-02-14 17:05:00,68.9,54.5,30.53,NW,321,4.2,7.4,60,0.00,,,0.00,51.74,Weather logger V3.0.,2016-02-14 22:05:00,
2016-02-14 17:10:00,68.9,54.5,30.52,East,85,3.6,4.9,60,0.00,,,0.00,45.03,Weather logger V3.0.,2016-02-14 22:10:00,
2016-02-14 17:15:00,68.9,54.5,30.53,NNW,345,6.0,7.4,60,0.00,,,0.00,36.94,Weather logger V3.0.,2016-02-14 22:15:00,
2016-02-14 17:20:00,68.9,54.9,30.53,NNW,332,8.3,9.8,61,0.00,,,0.00,34.73,Weather logger V3.0.,2016-02-14 22:20:00,
2016-02-14 17:25:00,68.9,54.9,30.53,NE,45,7.6,9.8,61,0.00,,,0.00,32.40,Weather logger V3.0.,2016-02-14 22:25:00,
2016-02-14 17:30:00,68.9,54.9,30.53,East,92,4.5,7.4,61,0.00,,,0.00,27.70,Weather logger V3.0.,2016-02-14 22:30:00,
2016-02-14 17:40:00,68.7,54.9,30.52,NE,53,8.1,12.3,61,0.00,,,0.00,21.78,Weather logger V3.0.,2016-02-14 22:40:00,
2016-02-14 17:46:00,68.7,55.6,30.52,NE,44,4.2,4.9,63,0.00,,,0.00,18.51,Weather logger V3.0.,2016-02-14 22:46:00,
2016-02-14 17:51:00,68.7,56.1,30.52,ENE,66,1.1,2.5,64,0.00,,,0.00,14.48,Weather logger V3.0.,2016-02-14 22:51:00,
2016-02-14 17:56:00,68.5,56.3,30.51,NNW,343,5.6,7.4,65,0.00,,,0.00,10.92,Weather logger V3.0.,2016-02-14 22:56:00,
2016-02-14 18:01:00,68.5,56.3,30.51,North,354,2.5,4.9,65,0.00,,,0.00,6.75,Weather logger V3.0.,2016-02-14 23:01:00,
2016-02-14 18:06:00,68.4,56.1,30.52,ENE,57,3.6,4.9,65,0.00,,,0.00,3.90,Weather logger V3.0.,2016-02-14 23:06:00,
2016-02-14 18:11:00,68.4,56.7,30.52,NNW,327,9.6,12.3,66,0.00,,,0.00,1.58,Weather logger V3.0.,2016-02-14 23:11:00,
2016-02-14 18:16:00,68.2,55.9,30.52,ENE,73,2.5,2.5,65,0.00,,,0.00,0.00,Weather logger V3.0.,2016-02-14 23:16:00,
2016-02-14 18:21:00,68.0,56.3,30.52,NNE,13,5.1,7.4,66,0.00,,,0.00,0.00,Weather logger V3.0.,2016-02-14 23:21:00,
2016-02-14 18:26:00,68.0,56.3,30.52,NNW,335,2.7,4.9,66,0.00,,,0.00,0.00,Weather logger V3.0.,2016-02-14 23:26:00,
2016-02-14 18:31:00,67.8,56.5,30.52,ENE,59,4.2,7.4,67,0.00,,,0.00,0.00,Weather logger V3.0.,2016-02-14 23:31:00,
2016-02-14 18:36:00,67.6,56.7,30.52,NE,35,5.6,7.4,68,0.00,,,0.00,0.00,Weather logger V3.0.,2016-02-14 23:36:00,
2016-02-14 18:41:00,67.6,56.7,30.52,NE,54,6.5,7.4,68,0.00,,,0.00,0.00,Weather logger V3.0.,2016-02-14 23:41:00,
2016-02-14 18:46:00,67.6,56.7,30.52,NE,36,4.0,4.9,68,0.00,,,0.00,0.00,Weather logger V3.0.,2016-02-14 23:46:00,
2016-02-14 18:51:00,67.5,56.7,30.53,North,356,5.1,7.4,68,0.00,,,0.00,0.00,Weather logger V3.0.,2016-02-14 23:51:00,
2016-02-14 18:56:00,67.5,57.0,30.53,North,0,3.6,4.9,69,0.00,,,0.00,0.00,Weather logger V3.0.,2016-02-14 23:56:00,
2016-02-14 19:02:00,67.5,56.7,30.53,ENE,66,3.4,4.9,68,0.00,,,0.00,0.00,Weather logger V3.0.,2016-02-15 00:02:00,
2016-02-14 19:07:00,67.3,56.5,30.53,East,80,4.0,7.4,68,0.00,,,0.00,0.00,Weather logger V3.0.,2016-02-15 00:07:00,
2016-02-14 19:12:00,67.3,56.5,30.53,NNW,347,4.2,7.4,68,0.00,,,0.00,0.00,Weather logger V3.0.,2016-02-15 00:12:00,